Time,TemperatureF,DewpointF,PressureIn,WindDirection,WindDirectionDegrees,WindSpeedMPH,WindSpeedGustMPH,Humidity,HourlyPrecipIn,Conditions,Clouds,dailyrainin,SoftwareType,DateUTC
2013-03-10 00:00:00,29.7,27.6,27.08,NNW,338,15.4,21.9,92,0.00,,---,0.00,VWS V14.01,2013-03-10 06:00:00,
2013-03-10 00:01:00,30.4,29.4,27.08,WNW,292,17.7,17.7,96,0.00,,---,0.00,VWS V14.01,2013-03-10 06:01:00,
2013-03-10 00:06:00,30.4,29.4,27.08,NNW,338,12.3,19.9,96,0.00,,---,0.00,VWS V14.01,2013-03-10 06:06:00,
2013-03-10 00:11:00,30.4,29.4,27.08,NNE,22,15.2,19.9,96,0.00,,---,0.00,VWS V14.01,2013-03-10 06:11:00,
2013-03-10 00:15:00,29.7,27.1,27.08,NW,315,14.1,22.2,90,0.00,,---,0.00,VWS V14.01,2013-03-10 06:15:00,
2013-03-10 00:16:00,30.2,29.5,27.08,North,0,13.9,23.0,97,0.00,,---,0.00,VWS V14.01,2013-03-10 06:16:00,
2013-03-10 00:21:00,30.2,29.5,27.08,NW,315,13.2,23.0,97,0.00,,---,0.00,VWS V14.01,2013-03-10 06:21:00,
2013-03-10 00:26:00,30.0,29.3,27.08,North,0,13.2,23.0,97,0.00,,---,0.00,VWS V14.01,2013-03-10 06:26:00,
2013-03-10 00:30:00,29.3,27.5,27.08,NNW,338,12.8,22.4,93,0.00,,---,0.00,VWS V14.01,2013-03-10 06:30:00,
2013-03-10 00:31:00,30.0,29.3,27.08,NW,315,18.8,18.8,97,0.00,,---,0.00,VWS V14.01,2013-03-10 06:31:00,
2013-03-10 00:36:00,29.8,29.1,27.08,WNW,292,13.9,19.5,97,0.00,,---,0.00,VWS V14.01,2013-03-10 06:36:00,
2013-03-10 00:41:00,29.8,29.1,27.08,North,0,16.6,19.5,97,0.00,,---,0.00,VWS V14.01,2013-03-10 06:41:00,
2013-03-10 00:45:00,29.3,26.7,27.08,NW,315,16.3,24.2,90,0.00,,---,0.00,VWS V14.01,2013-03-10 06:45:00,
2013-03-10 00:46:00,29.8,28.8,27.08,NNW,338,15.4,20.4,96,0.00,,---,0.00,VWS V14.01,2013-03-10 06:46:00,
2013-03-10 00:51:00,29.7,28.7,27.08,North,0,16.3,20.4,96,0.00,,---,0.00,VWS V14.01,2013-03-10 06:51:00,
2013-03-10 00:56:00,29.7,28.1,27.08,NNW,338,15.2,20.4,94,0.00,,---,0.00,VWS V14.01,2013-03-10 06:56:00,
2013-03-10 00:59:00,28.8,25.1,27.08,North,0,14.1,29.3,86,0.00,,---,0.00,VWS V14.01,2013-03-10 06:59:00,
2013-03-10 01:00:00,28.8,25.1,27.08,North,0,16.3,29.3,86,0.00,,---,0.00,VWS V14.01,2013-03-10 07:00:00,
2013-03-10 01:01:00,29.7,27.6,27.08,WNW,292,15.2,15.9,92,0.00,,---,0.00,VWS V14.01,2013-03-10 07:01:00,
2013-03-10 01:02:00,28.6,24.9,27.11,North,0,17.5,20.6,86,0.00,,---,0.00,VWS V14.01,2013-03-10 07:02:00,
2013-03-10 01:06:00,29.7,27.4,27.08,NNE,22,12.8,21.5,91,0.00,,---,0.00,VWS V14.01,2013-03-10 07:06:00,
2013-03-10 01:11:00,29.7,27.1,27.08,NW,315,17.7,21.5,90,0.00,,---,0.00,VWS V14.01,2013-03-10 07:11:00,
2013-03-10 01:16:00,29.7,26.8,27.08,North,0,15.9,15.9,89,0.00,,---,0.00,VWS V14.01,2013-03-10 07:16:00,
2013-03-10 01:21:00,29.7,26.8,27.08,NW,315,15.9,18.8,89,0.00,,---,0.00,VWS V14.01,2013-03-10 07:21:00,
2013-03-10 01:26:00,29.5,27.5,27.08,NW,315,16.8,22.4,92,0.00,,---,0.00,VWS V14.01,2013-03-10 07:26:00,
2013-03-10 01:30:00,28.4,22.4,27.11,NNW,338,14.8,26.0,78,0.00,,---,0.00,VWS V14.01,2013-03-10 07:30:00,
2013-03-10 01:31:00,29.3,27.5,27.08,West,270,15.4,17.0,93,0.00,,---,0.00,VWS V14.01,2013-03-10 07:31:00,
2013-03-10 01:36:00,29.3,27.3,27.08,NW,315,13.0,18.1,92,0.00,,---,0.00,VWS V14.01,2013-03-10 07:36:00,
2013-03-10 01:41:00,29.3,26.7,27.08,North,0,13.6,24.2,90,0.00,,---,0.00,VWS V14.01,2013-03-10 07:41:00,
2013-03-10 01:45:00,27.9,21.0,27.11,North,0,16.1,21.3,75,0.00,,---,0.00,VWS V14.01,2013-03-10 07:45:00,
2013-03-10 01:46:00,29.3,26.7,27.08,NNW,338,13.6,20.1,90,0.00,,---,0.00,VWS V14.01,2013-03-10 07:46:00,
2013-03-10 01:51:00,29.1,26.6,27.08,NNW,338,19.7,20.1,90,0.00,,---,0.00,VWS V14.01,2013-03-10 07:51:00,
2013-03-10 01:56:00,28.8,25.7,27.08,NNW,338,22.4,29.3,88,0.00,,---,0.00,VWS V14.01,2013-03-10 07:56:00,
2013-03-10 03:00:00,27.5,19.4,27.11,West,270,22.8,25.7,71,0.00,,---,0.00,VWS V14.01,2013-03-10 08:00:00,
2013-03-10 03:02:00,28.6,24.9,27.11,North,0,17.5,20.6,86,0.00,,---,0.00,VWS V14.01,2013-03-10 08:02:00,
2013-03-10 03:07:00,28.6,24.9,27.11,NNW,338,17.0,21.5,86,0.00,,---,0.00,VWS V14.01,2013-03-10 08:07:00,
2013-03-10 03:12:00,28.6,24.4,27.11,NW,315,20.8,24.2,84,0.00,,---,0.00,VWS V14.01,2013-03-10 08:12:00,
2013-03-10 03:15:00,27.1,18.7,27.11,NNW,338,19.7,28.4,70,0.00,,---,0.00,VWS V14.01,2013-03-10 08:15:00,
2013-03-10 03:17:00,28.6,24.1,27.11,NW,315,13.2,26.0,83,0.00,,---,0.00,VWS V14.01,2013-03-10 08:17:00,
2013-03-10 03:22:00,28.6,23.2,27.11,NNW,338,17.5,26.0,80,0.00,,---,0.00,VWS V14.01,2013-03-10 08:22:00,
2013-03-10 03:27:00,28.4,22.4,27.11,NNE,22,17.7,26.0,78,0.00,,---,0.00,VWS V14.01,2013-03-10 08:27:00,
2013-03-10 03:30:00,27.0,18.2,27.11,North,0,16.3,19.7,69,0.00,,---,0.00,VWS V14.01,2013-03-10 08:30:00,
2013-03-10 03:32:00,28.4,22.4,27.11,NNW,338,15.4,17.7,78,0.00,,---,0.00,VWS V14.01,2013-03-10 08:32:00,
2013-03-10 03:37:00,28.4,22.4,27.11,NNW,338,14.3,17.7,78,0.00,,---,0.00,VWS V14.01,2013-03-10 08:37:00,
2013-03-10 03:42:00,28.0,21.8,27.11,NW,315,14.1,19.2,77,0.00,,---,0.00,VWS V14.01,2013-03-10 08:42:00,
2013-03-10 03:45:00,26.6,17.5,27.14,NNW,338,11.9,17.5,68,0.00,,---,0.00,VWS V14.01,2013-03-10 08:45:00,
2013-03-10 03:47:00,27.9,21.0,27.11,West,270,12.1,25.1,75,0.00,,---,0.00,VWS V14.01,2013-03-10 08:47:00,
2013-03-10 03:52:00,27.7,20.2,27.11,NNW,338,14.8,25.1,73,0.00,,---,0.00,VWS V14.01,2013-03-10 08:52:00,
2013-03-10 03:57:00,27.7,19.9,27.11,North,0,15.2,25.1,72,0.00,,---,0.00,VWS V14.01,2013-03-10 08:57:00,
2013-03-10 04:00:00,26.1,16.6,27.14,NNW,338,13.0,19.9,67,0.00,,---,0.00,VWS V14.01,2013-03-10 09:00:00,
2013-03-10 04:02:00,27.3,18.8,27.11,NNW,338,24.2,24.2,70,0.00,,---,0.00,VWS V14.01,2013-03-10 09:02:00,
2013-03-10 04:07:00,27.3,18.5,27.11,NNW,338,13.6,28.4,69,0.00,,---,0.00,VWS V14.01,2013-03-10 09:07:00,
2013-03-10 04:12:00,27.1,18.7,27.11,NNW,338,15.2,28.4,70,0.00,,---,0.00,VWS V14.01,2013-03-10 09:12:00,
2013-03-10 04:15:00,25.9,16.5,27.14,NW,315,10.7,19.7,67,0.00,,---,0.00,VWS V14.01,2013-03-10 09:15:00,
2013-03-10 04:17:00,27.0,18.5,27.11,North,0,13.2,19.7,70,0.00,,---,0.00,VWS V14.01,2013-03-10 09:17:00,
2013-03-10 04:22:00,27.0,18.5,27.11,NNW,338,13.2,19.7,70,0.00,,---,0.00,VWS V14.01,2013-03-10 09:22:00,
2013-03-10 04:27:00,27.0,18.5,27.11,North,0,14.8,19.7,70,0.00,,---,0.00,VWS V14.01,2013-03-10 09:27:00,
2013-03-10 04:30:00,25.5,15.8,27.14,North,0,24.6,24.6,66,0.00,,---,0.00,VWS V14.01,2013-03-10 09:30:00,
2013-03-10 04:32:00,26.8,18.3,27.14,NW,315,15.2,16.3,70,0.00,,---,0.00,VWS V14.01,2013-03-10 09:32:00,
2013-03-10 04:37:00,26.6,17.8,27.14,North,0,10.7,16.3,69,0.00,,---,0.00,VWS V14.01,2013-03-10 09:37:00,
2013-03-10 04:42:00,26.6,17.8,27.14,NW,315,10.3,17.5,69,0.00,,---,0.00,VWS V14.01,2013-03-10 09:42:00,
2013-03-10 04:45:00,25.2,15.4,27.14,NNW,338,13.9,25.3,66,0.00,,---,0.00,VWS V14.01,2013-03-10 09:45:00,
2013-03-10 04:47:00,26.6,17.5,27.14,NNW,338,12.1,17.2,68,0.00,,---,0.00,VWS V14.01,2013-03-10 09:47:00,
2013-03-10 04:52:00,26.2,16.8,27.14,NW,315,11.0,19.9,67,0.00,,---,0.00,VWS V14.01,2013-03-10 09:52:00,
2013-03-10 04:57:00,26.2,16.8,27.14,NW,315,13.6,19.9,67,0.00,,---,0.00,VWS V14.01,2013-03-10 09:57:00,
2013-03-10 05:00:00,24.8,15.1,27.14,NW,315,13.2,23.3,66,0.00,,---,0.00,VWS V14.01,2013-03-10 10:00:00,
2013-03-10 05:02:00,26.1,16.6,27.14,NW,315,10.1,19.7,67,0.00,,---,0.00,VWS V14.01,2013-03-10 10:02:00,
2013-03-10 05:07:00,26.1,16.6,27.14,NW,315,17.5,19.7,67,0.00,,---,0.00,VWS V14.01,2013-03-10 10:07:00,
2013-03-10 05:12:00,25.9,16.5,27.14,NNW,338,12.5,19.7,67,0.00,,---,0.00,VWS V14.01,2013-03-10 10:12:00,
2013-03-10 05:17:00,25.9,16.8,27.14,North,0,14.8,17.5,68,0.00,,---,0.00,VWS V14.01,2013-03-10 10:17:00,
2013-03-10 05:22:00,25.7,16.3,27.14,NNW,338,11.0,19.2,67,0.00,,---,0.00,VWS V14.01,2013-03-10 10:22:00,
2013-03-10 05:27:00,25.7,16.3,27.14,NNW,338,12.8,19.2,67,0.00,,---,0.00,VWS V14.01,2013-03-10 10:27:00,
2013-03-10 05:30:00,23.9,13.5,27.14,North,0,13.0,25.3,64,0.00,,---,0.00,VWS V14.01,2013-03-10 10:30:00,
2013-03-10 05:32:00,25.5,15.8,27.14,North,0,24.6,24.6,66,0.00,,---,0.00,VWS V14.01,2013-03-10 10:32:00,
2013-03-10 05:37:00,25.3,15.6,27.14,NNW,338,15.4,24.6,66,0.00,,---,0.00,VWS V14.01,2013-03-10 10:37:00,
2013-03-10 05:42:00,25.2,15.8,27.14,NNW,338,22.8,25.3,67,0.00,,---,0.00,VWS V14.01,2013-03-10 10:42:00,
2013-03-10 05:45:00,23.5,13.5,27.17,NW,315,13.2,24.6,65,0.00,,---,0.00,VWS V14.01,2013-03-10 10:45:00,
2013-03-10 05:47:00,25.2,15.4,27.14,NNW,338,16.8,17.9,66,0.00,,---,0.00,VWS V14.01,2013-03-10 10:47:00,
2013-03-10 05:52:00,25.2,15.4,27.14,WNW,292,12.5,19.5,66,0.00,,---,0.00,VWS V14.01,2013-03-10 10:52:00,
2013-03-10 05:57:00,25.0,15.2,27.14,NW,315,10.7,23.3,66,0.00,,---,0.00,VWS V14.01,2013-03-10 10:57:00,
2013-03-10 06:00:00,23.4,13.4,27.17,NNW,338,19.5,23.7,65,0.00,,---,0.00,VWS V14.01,2013-03-10 11:00:00,
2013-03-10 06:02:00,24.8,15.1,27.14,WNW,292,12.3,13.2,66,0.00,,---,0.00,VWS V14.01,2013-03-10 11:02:00,
2013-03-10 06:07:00,24.6,14.6,27.14,NW,315,13.4,17.5,65,0.00,,---,0.00,VWS V14.01,2013-03-10 11:07:00,
2013-03-10 06:12:00,24.4,14.4,27.14,NW,315,12.5,25.3,65,0.00,,---,0.00,VWS V14.01,2013-03-10 11:12:00,
2013-03-10 06:15:00,22.8,13.2,27.17,NW,315,13.4,22.6,66,0.00,,---,0.00,VWS V14.01,2013-03-10 11:15:00,
2013-03-10 06:17:00,24.4,14.4,27.14,NW,315,15.2,25.3,65,0.00,,---,0.00,VWS V14.01,2013-03-10 11:17:00,
2013-03-10 06:22:00,24.3,14.2,27.14,NW,315,13.4,25.3,65,0.00,,---,0.00,VWS V14.01,2013-03-10 11:22:00,
2013-03-10 06:27:00,24.1,13.7,27.14,North,0,15.4,25.3,64,0.00,,---,0.00,VWS V14.01,2013-03-10 11:27:00,
2013-03-10 06:30:00,22.6,12.7,27.17,NW,315,21.9,23.5,65,0.00,,---,0.00,VWS V14.01,2013-03-10 11:30:00,
2013-03-10 06:32:00,23.9,13.5,27.17,NNW,338,15.4,17.5,64,0.00,,---,0.00,VWS V14.01,2013-03-10 11:32:00,
2013-03-10 06:37:00,23.7,13.3,27.17,NNW,338,18.1,24.6,64,0.00,,---,0.00,VWS V14.01,2013-03-10 11:37:00,
2013-03-10 06:42:00,23.5,13.5,27.17,NNW,338,13.2,24.6,65,0.00,,---,0.00,VWS V14.01,2013-03-10 11:42:00,
2013-03-10 06:45:00,22.6,12.3,27.20,NNW,338,25.7,25.7,64,0.00,,---,0.00,VWS V14.01,2013-03-10 11:45:00,
2013-03-10 06:47:00,23.5,13.5,27.17,North,0,12.8,20.4,65,0.00,,---,0.00,VWS V14.01,2013-03-10 11:47:00,
2013-03-10 06:52:00,23.4,13.4,27.17,North,0,17.7,20.4,65,0.00,,---,0.00,VWS V14.01,2013-03-10 11:52:00,
2013-03-10 06:57:00,23.4,13.4,27.17,NW,315,15.2,23.7,65,0.00,,---,0.00,VWS V14.01,2013-03-10 11:57:00,
2013-03-10 07:00:00,22.5,11.8,27.20,NNW,338,10.3,25.7,63,0.00,,---,0.00,VWS V14.01,2013-03-10 12:00:00,
2013-03-10 07:02:00,23.4,13.4,27.17,NW,315,22.6,22.6,65,0.00,,---,0.00,VWS V14.01,2013-03-10 12:02:00,
2013-03-10 07:06:00,23.0,13.0,27.17,NW,315,15.2,22.6,65,0.00,,---,0.00,VWS V14.01,2013-03-10 12:06:00,
2013-03-10 07:12:00,23.0,13.4,27.17,NNW,338,15.2,22.6,66,0.00,,---,0.00,VWS V14.01,2013-03-10 12:12:00,
2013-03-10 07:15:00,22.1,11.4,27.20,NNW,338,13.0,17.0,63,0.00,,---,0.00,VWS V14.01,2013-03-10 12:15:00,
2013-03-10 07:17:00,22.8,13.2,27.17,NW,315,12.5,17.5,66,0.00,,---,0.00,VWS V14.01,2013-03-10 12:17:00,
2013-03-10 07:21:00,22.6,13.0,27.17,North,0,12.5,18.1,66,0.00,,---,0.00,VWS V14.01,2013-03-10 12:21:00,
2013-03-10 07:26:00,22.6,13.0,27.17,NW,315,19.7,22.6,66,0.00,,---,0.00,VWS V14.01,2013-03-10 12:26:00,
2013-03-10 07:30:00,22.1,11.8,27.20,NNE,22,10.1,15.4,64,0.00,,---,0.00,VWS V14.01,2013-03-10 12:30:00,
2013-03-10 07:31:00,22.6,12.7,27.20,NW,315,22.2,22.2,65,0.00,,---,0.00,VWS V14.01,2013-03-10 12:31:00,
2013-03-10 07:36:00,22.5,12.5,27.20,NW,315,16.3,22.2,65,0.00,,---,0.00,VWS V14.01,2013-03-10 12:36:00,
2013-03-10 07:41:00,22.5,12.5,27.20,NW,315,16.1,24.2,65,0.00,,---,0.00,VWS V14.01,2013-03-10 12:41:00,
2013-03-10 07:45:00,25.0,11.5,27.20,NW,315,19.9,24.4,56,0.00,,---,0.00,VWS V14.01,2013-03-10 12:45:00,
2013-03-10 07:46:00,22.6,12.3,27.20,North,0,15.4,25.7,64,0.00,,---,0.00,VWS V14.01,2013-03-10 12:46:00,
2013-03-10 07:51:00,22.5,12.1,27.20,NNW,338,12.3,25.7,64,0.00,,---,0.00,VWS V14.01,2013-03-10 12:51:00,
2013-03-10 07:56:00,22.5,11.8,27.20,NNW,338,23.7,25.7,63,0.00,,---,0.00,VWS V14.01,2013-03-10 12:56:00,
2013-03-10 08:00:00,24.8,10.5,27.20,NNW,338,15.2,26.2,54,0.00,,---,0.00,VWS V14.01,2013-03-10 13:00:00,
2013-03-10 08:01:00,22.3,11.2,27.20,NNW,338,14.5,16.8,62,0.00,,---,0.00,VWS V14.01,2013-03-10 13:01:00,
2013-03-10 08:06:00,22.1,11.4,27.20,NNW,338,14.8,17.0,63,0.00,,---,0.00,VWS V14.01,2013-03-10 13:06:00,
2013-03-10 08:11:00,22.1,11.4,27.20,NW,315,15.9,17.0,63,0.00,,---,0.00,VWS V14.01,2013-03-10 13:11:00,
2013-03-10 08:15:00,25.7,11.4,27.20,NNW,338,22.8,25.3,54,0.00,,---,0.00,VWS V14.01,2013-03-10 13:15:00,
2013-03-10 08:16:00,22.1,11.4,27.20,WNW,292,12.5,13.6,63,0.00,,---,0.00,VWS V14.01,2013-03-10 13:16:00,
2013-03-10 08:21:00,22.1,11.4,27.20,West,270,10.3,13.6,63,0.00,,---,0.00,VWS V14.01,2013-03-10 13:21:00,
2013-03-10 08:26:00,22.1,11.8,27.20,WNW,292,14.3,15.4,64,0.00,,---,0.00,VWS V14.01,2013-03-10 13:26:00,
2013-03-10 08:30:00,26.8,11.5,27.20,NW,315,13.2,23.5,52,0.00,,---,0.00,VWS V14.01,2013-03-10 13:30:00,
2013-03-10 08:31:00,22.1,11.8,27.20,NNW,338,12.5,12.5,64,0.00,,---,0.00,VWS V14.01,2013-03-10 13:31:00,
2013-03-10 08:36:00,23.4,11.9,27.20,North,0,17.7,19.9,61,0.00,,---,0.00,VWS V14.01,2013-03-10 13:36:00,
2013-03-10 08:41:00,24.3,11.6,27.20,NW,315,21.9,24.4,58,0.00,,---,0.00,VWS V14.01,2013-03-10 13:41:00,
2013-03-10 08:45:00,27.0,11.3,27.17,North,0,14.8,24.2,51,0.00,,---,0.00,VWS V14.01,2013-03-10 13:45:00,
2013-03-10 08:46:00,24.8,11.3,27.20,NNW,338,12.8,19.9,56,0.00,,---,0.00,VWS V14.01,2013-03-10 13:46:00,
2013-03-10 08:51:00,25.3,11.4,27.20,NNW,338,22.2,26.0,55,0.00,,---,0.00,VWS V14.01,2013-03-10 13:51:00,
2013-03-10 08:56:00,25.0,10.7,27.20,NW,315,23.0,26.0,54,0.00,,---,0.00,VWS V14.01,2013-03-10 13:56:00,
2013-03-10 08:59:00,27.9,11.6,27.20,North,0,13.4,19.7,50,0.00,,---,0.00,VWS V14.01,2013-03-10 13:59:00,
2013-03-10 09:00:00,28.0,11.8,27.20,NNW,338,14.3,19.7,50,0.00,,---,0.00,VWS V14.01,2013-03-10 14:00:00,
2013-03-10 09:01:00,25.0,10.7,27.20,North,0,16.8,25.3,54,0.00,,---,0.00,VWS V14.01,2013-03-10 14:01:00,
2013-03-10 09:02:00,27.9,11.6,27.20,North,0,20.4,20.4,50,0.00,,---,0.00,VWS V14.01,2013-03-10 14:02:00,
2013-03-10 09:03:00,28.0,11.8,27.20,NNE,22,12.3,20.4,50,0.00,,---,0.00,VWS V14.01,2013-03-10 14:03:00,
2013-03-10 09:06:00,24.8,10.9,27.20,NW,315,23.7,25.3,55,0.00,,---,0.00,VWS V14.01,2013-03-10 14:06:00,
2013-03-10 09:11:00,25.2,11.3,27.20,NNW,338,20.1,25.3,55,0.00,,---,0.00,VWS V14.01,2013-03-10 14:11:00,
2013-03-10 09:15:00,28.4,12.1,27.20,NNW,338,13.2,20.4,50,0.00,,---,0.00,VWS V14.01,2013-03-10 14:15:00,
2013-03-10 09:16:00,25.7,11.4,27.20,North,0,13.0,22.8,54,0.00,,---,0.00,VWS V14.01,2013-03-10 14:16:00,
2013-03-10 09:21:00,26.2,11.4,27.20,North,0,13.0,23.5,53,0.00,,---,0.00,VWS V14.01,2013-03-10 14:21:00,
2013-03-10 09:26:00,26.6,11.8,27.20,NW,315,15.2,23.5,53,0.00,,---,0.00,VWS V14.01,2013-03-10 14:26:00,
2013-03-10 09:30:00,28.2,12.0,27.23,North,0,14.8,27.7,50,0.00,,---,0.00,VWS V14.01,2013-03-10 14:30:00,
2013-03-10 09:31:00,27.0,12.1,27.17,NNW,338,14.8,24.2,53,0.00,,---,0.00,VWS V14.01,2013-03-10 14:31:00,
2013-03-10 09:32:00,28.6,11.9,27.23,NNE,22,12.8,26.4,49,0.00,,---,0.00,VWS V14.01,2013-03-10 14:32:00,
2013-03-10 09:33:00,28.6,11.9,27.23,NNW,338,12.8,26.4,49,0.00,,---,0.00,VWS V14.01,2013-03-10 14:33:00,
2013-03-10 09:34:00,28.4,12.1,27.23,NNW,338,13.2,26.4,50,0.00,,---,0.00,VWS V14.01,2013-03-10 14:34:00,
2013-03-10 09:36:00,27.0,11.7,27.17,North,0,16.8,24.2,52,0.00,,---,0.00,VWS V14.01,2013-03-10 14:36:00,
2013-03-10 09:41:00,26.6,11.4,27.17,NNW,338,14.8,24.2,52,0.00,,---,0.00,VWS V14.01,2013-03-10 14:41:00,
2013-03-10 09:45:00,28.9,12.2,27.23,NNW,338,15.2,26.4,49,0.00,,---,0.00,VWS V14.01,2013-03-10 14:45:00,
2013-03-10 09:46:00,27.0,11.3,27.17,NNW,338,16.8,16.8,51,0.00,,---,0.00,VWS V14.01,2013-03-10 14:46:00,
2013-03-10 09:51:00,27.5,11.3,27.20,NW,315,13.0,19.7,50,0.00,,---,0.00,VWS V14.01,2013-03-10 14:51:00,
2013-03-10 09:56:00,27.9,11.6,27.20,North,0,12.5,19.7,50,0.00,,---,0.00,VWS V14.01,2013-03-10 14:56:00,
2013-03-10 10:00:00,29.8,13.0,27.23,NW,315,16.6,26.9,49,0.00,,---,0.00,VWS V14.01,2013-03-10 15:00:00,
2013-03-10 10:03:00,28.0,11.8,27.20,North,0,13.0,20.4,50,0.00,,---,0.00,VWS V14.01,2013-03-10 15:03:00,
2013-03-10 10:08:00,28.2,12.0,27.20,North,0,15.4,20.4,50,0.00,,---,0.00,VWS V14.01,2013-03-10 15:08:00,
2013-03-10 10:13:00,28.4,12.1,27.20,North,0,14.5,20.4,50,0.00,,---,0.00,VWS V14.01,2013-03-10 15:13:00,
2013-03-10 10:15:00,30.4,13.1,27.23,North,0,14.8,25.5,48,0.00,,---,0.00,VWS V14.01,2013-03-10 15:15:00,
2013-03-10 10:18:00,28.4,12.1,27.23,NNE,22,12.8,15.2,50,0.00,,---,0.00,VWS V14.01,2013-03-10 15:18:00,
2013-03-10 10:23:00,28.8,12.0,27.23,North,0,13.0,17.2,49,0.00,,---,0.00,VWS V14.01,2013-03-10 15:23:00,
2013-03-10 10:28:00,28.0,11.4,27.23,North,0,14.3,27.7,49,0.00,,---,0.00,VWS V14.01,2013-03-10 15:28:00,
2013-03-10 10:30:00,30.2,12.9,27.23,North,0,19.7,28.4,48,0.00,,---,0.00,VWS V14.01,2013-03-10 15:30:00,
2013-03-10 10:33:00,28.6,11.9,27.23,NNE,22,12.8,26.4,49,0.00,,---,0.00,VWS V14.01,2013-03-10 15:33:00,
2013-03-10 10:38:00,28.6,12.3,27.23,North,0,19.7,26.4,50,0.00,,---,0.00,VWS V14.01,2013-03-10 15:38:00,
2013-03-10 10:43:00,28.9,12.2,27.23,North,0,12.8,26.4,49,0.00,,---,0.00,VWS V14.01,2013-03-10 15:43:00,
2013-03-10 10:45:00,30.6,13.2,27.23,North,0,23.0,24.2,48,0.00,,---,0.00,VWS V14.01,2013-03-10 15:45:00,
2013-03-10 10:48:00,28.8,12.0,27.23,North,0,25.3,25.3,49,0.00,,---,0.00,VWS V14.01,2013-03-10 15:48:00,
2013-03-10 10:53:00,28.9,12.2,27.23,North,0,16.1,26.9,49,0.00,,---,0.00,VWS V14.01,2013-03-10 15:53:00,
2013-03-10 10:56:00,30.7,12.9,27.23,NW,315,21.9,21.9,47,0.00,,---,0.00,VWS V14.01,2013-03-10 15:56:00,
2013-03-10 10:57:00,30.7,12.9,27.23,NNW,338,12.8,21.9,47,0.00,,---,0.00,VWS V14.01,2013-03-10 15:57:00,
2013-03-10 10:58:00,30.0,13.2,27.23,North,0,23.5,26.9,49,0.00,,---,0.00,VWS V14.01,2013-03-10 15:58:00,
2013-03-10 10:59:00,31.1,13.7,27.23,NNW,338,15.4,17.7,48,0.00,,---,0.00,VWS V14.01,2013-03-10 15:59:00,
2013-03-10 11:00:00,30.9,13.1,27.23,North,0,29.5,29.5,47,0.00,,---,0.00,VWS V14.01,2013-03-10 16:00:00,
2013-03-10 11:01:00,30.9,13.1,27.23,NW,315,12.8,29.5,47,0.00,,---,0.00,VWS V14.01,2013-03-10 16:01:00,
2013-03-10 11:02:00,31.1,13.7,27.23,NW,315,23.3,23.3,48,0.00,,---,0.00,VWS V14.01,2013-03-10 16:02:00,
2013-03-10 11:03:00,30.0,13.2,27.23,NNW,338,15.2,19.0,49,0.00,,---,0.00,VWS V14.01,2013-03-10 16:03:00,
2013-03-10 11:04:00,31.5,14.1,27.23,North,0,13.0,13.0,48,0.00,,---,0.00,VWS V14.01,2013-03-10 16:04:00,
2013-03-10 11:05:00,31.5,13.6,27.23,NW,315,19.2,19.2,47,0.00,,---,0.00,VWS V14.01,2013-03-10 16:05:00,
2013-03-10 11:06:00,31.5,13.6,27.23,NNW,338,12.5,19.2,47,0.00,,---,0.00,VWS V14.01,2013-03-10 16:06:00,
2013-03-10 11:07:00,31.5,13.6,27.23,WNW,292,18.1,18.1,47,0.00,,---,0.00,VWS V14.01,2013-03-10 16:07:00,
2013-03-10 11:08:00,30.0,12.7,27.23,NW,315,13.0,25.5,48,0.00,,---,0.00,VWS V14.01,2013-03-10 16:08:00,
2013-03-10 11:09:00,31.5,13.6,27.23,NNW,338,18.1,18.1,47,0.00,,---,0.00,VWS V14.01,2013-03-10 16:09:00,
2013-03-10 11:10:00,31.5,13.6,27.23,North,0,17.2,18.1,47,0.00,,---,0.00,VWS V14.01,2013-03-10 16:10:00,
2013-03-10 11:11:00,31.5,13.6,27.23,NW,315,18.1,18.1,47,0.00,,---,0.00,VWS V14.01,2013-03-10 16:11:00,
2013-03-10 11:12:00,31.3,13.4,27.23,NW,315,17.5,18.1,47,0.00,,---,0.00,VWS V14.01,2013-03-10 16:12:00,
2013-03-10 11:13:00,30.6,13.2,27.23,North,0,19.5,25.5,48,0.00,,---,0.00,VWS V14.01,2013-03-10 16:13:00,
2013-03-10 11:14:00,31.1,13.2,27.23,NNW,338,18.1,19.0,47,0.00,,---,0.00,VWS V14.01,2013-03-10 16:14:00,
2013-03-10 11:15:00,30.7,12.9,27.23,NW,315,18.1,18.1,47,0.00,,---,0.00,VWS V14.01,2013-03-10 16:15:00,
2013-03-10 11:16:00,30.7,12.9,27.23,North,0,13.2,18.1,47,0.00,,---,0.00,VWS V14.01,2013-03-10 16:16:00,
2013-03-10 11:17:00,30.7,12.9,27.23,North,0,27.1,27.1,47,0.00,,---,0.00,VWS V14.01,2013-03-10 16:17:00,
2013-03-10 11:18:00,30.0,12.7,27.23,NNW,338,23.3,23.3,48,0.00,,---,0.00,VWS V14.01,2013-03-10 16:18:00,
2013-03-10 11:19:00,30.7,12.9,27.23,NNW,338,15.2,27.7,47,0.00,,---,0.00,VWS V14.01,2013-03-10 16:19:00,
2013-03-10 11:20:00,30.7,12.9,27.23,North,0,19.5,19.5,47,0.00,,---,0.00,VWS V14.01,2013-03-10 16:20:00,
2013-03-10 11:21:00,30.7,12.9,27.23,North,0,19.7,19.7,47,0.00,,---,0.00,VWS V14.01,2013-03-10 16:21:00,
2013-03-10 11:22:00,30.7,12.9,27.23,North,0,14.8,19.7,47,0.00,,---,0.00,VWS V14.01,2013-03-10 16:22:00,
2013-03-10 11:23:00,30.2,12.9,27.23,NW,315,13.4,26.2,48,0.00,,---,0.00,VWS V14.01,2013-03-10 16:23:00,
2013-03-10 11:24:00,30.7,12.9,27.23,NNW,338,23.5,23.5,47,0.00,,---,0.00,VWS V14.01,2013-03-10 16:24:00,
2013-03-10 11:25:00,30.6,12.7,27.23,North,0,12.8,23.5,47,0.00,,---,0.00,VWS V14.01,2013-03-10 16:25:00,
2013-03-10 11:28:00,30.2,12.9,27.23,NNW,338,21.5,28.4,48,0.00,,---,0.00,VWS V14.01,2013-03-10 16:28:00,
2013-03-10 11:33:00,29.8,12.6,27.23,NNW,338,18.1,19.7,48,0.00,,---,0.00,VWS V14.01,2013-03-10 16:33:00,
2013-03-10 11:38:00,30.2,12.9,27.23,North,0,14.8,24.2,48,0.00,,---,0.00,VWS V14.01,2013-03-10 16:38:00,
2013-03-10 11:43:00,30.7,13.4,27.23,North,0,23.0,24.2,48,0.00,,---,0.00,VWS V14.01,2013-03-10 16:43:00,
2013-03-10 11:48:00,30.2,12.4,27.23,NW,315,14.5,27.5,47,0.00,,---,0.00,VWS V14.01,2013-03-10 16:48:00,
2013-03-10 11:53:00,30.4,12.6,27.23,North,0,23.5,27.5,47,0.00,,---,0.00,VWS V14.01,2013-03-10 16:53:00,
2013-03-10 14:30:00,33.3,14.7,27.23,NW,315,16.1,22.2,46,0.00,,---,0.00,VWS V14.01,2013-03-10 19:30:00,
2013-03-10 14:45:00,33.1,14.1,27.20,NNE,22,27.5,27.5,45,0.00,,---,0.00,VWS V14.01,2013-03-10 19:45:00,
2013-03-10 15:00:00,33.1,14.1,27.20,North,0,19.5,28.0,45,0.00,,---,0.00,VWS V14.01,2013-03-10 20:00:00,
2013-03-10 15:15:00,33.1,13.6,27.20,NNW,338,14.3,24.6,44,0.00,,---,0.00,VWS V14.01,2013-03-10 20:15:00,
2013-03-10 15:30:00,33.3,13.7,27.20,NW,315,19.5,23.9,44,0.00,,---,0.00,VWS V14.01,2013-03-10 20:30:00,
2013-03-10 15:45:00,33.6,14.1,27.23,North,0,17.5,23.3,44,0.00,,---,0.00,VWS V14.01,2013-03-10 20:45:00,
2013-03-10 16:00:00,33.6,14.1,27.20,North,0,13.0,22.8,44,0.00,,---,0.00,VWS V14.01,2013-03-10 21:00:00,
2013-03-10 16:15:00,33.3,13.2,27.20,NNW,338,16.8,23.7,43,0.00,,---,0.00,VWS V14.01,2013-03-10 21:15:00,
2013-03-10 16:30:00,33.3,13.2,27.20,NW,315,17.7,21.9,43,0.00,,---,0.00,VWS V14.01,2013-03-10 21:30:00,
2013-03-10 16:45:00,33.3,13.2,27.20,NW,315,12.1,19.9,43,0.00,,---,0.00,VWS V14.01,2013-03-10 21:45:00,
2013-03-10 17:00:00,32.7,12.7,27.20,NW,315,12.5,24.6,43,0.00,,---,0.00,VWS V14.01,2013-03-10 22:00:00,
2013-03-10 17:15:00,32.5,12.5,27.20,NW,315,12.8,17.7,43,0.00,,---,0.00,VWS V14.01,2013-03-10 22:15:00,
2013-03-10 17:30:00,31.6,11.7,27.20,NW,315,10.7,19.9,43,0.00,,---,0.00,VWS V14.01,2013-03-10 22:30:00,
2013-03-10 17:45:00,30.6,11.2,27.17,NW,315,12.1,19.0,44,0.00,,---,0.00,VWS V14.01,2013-03-10 22:45:00,
2013-03-10 18:15:00,28.2,10.1,27.20,North,0,10.1,16.1,46,0.00,,---,0.00,VWS V14.01,2013-03-10 23:15:00,
2013-03-10 18:30:00,27.3,9.8,27.20,North,0,8.5,17.7,47,0.00,,---,0.00,VWS V14.01,2013-03-10 23:30:00,
2013-03-10 18:45:00,26.1,9.1,27.20,NNW,338,10.1,10.5,48,0.00,,---,0.00,VWS V14.01,2013-03-10 23:45:00,
2013-03-10 19:00:00,24.8,8.8,27.20,North,0,5.8,12.5,50,0.00,,---,0.00,VWS V14.01,2013-03-11 00:00:00,
2013-03-10 19:15:00,23.2,8.2,27.17,NW,315,6.5,7.4,52,0.00,,---,0.00,VWS V14.01,2013-03-11 00:15:00,
2013-03-10 19:30:00,23.0,8.9,27.20,NW,315,4.3,9.8,54,0.00,,---,0.00,VWS V14.01,2013-03-11 00:30:00,
2013-03-10 19:45:00,21.9,8.2,27.20,NW,315,3.4,5.6,55,0.00,,---,0.00,VWS V14.01,2013-03-11 00:45:00,
2013-03-10 20:00:00,20.5,7.3,27.20,NW,315,1.3,3.4,56,0.00,,---,0.00,VWS V14.01,2013-03-11 01:00:00,
2013-03-10 20:15:00,19.4,7.1,27.20,NW,315,1.6,3.4,58,0.00,,---,0.00,VWS V14.01,2013-03-11 01:15:00,
2013-03-10 20:30:00,17.6,5.7,27.20,NW,315,0.0,2.2,59,0.00,,---,0.00,VWS V14.01,2013-03-11 01:30:00,
2013-03-10 20:45:00,16.2,5.8,27.20,NW,315,2.7,3.6,63,0.00,,---,0.00,VWS V14.01,2013-03-11 01:45:00,
2013-03-10 21:00:00,16.2,7.5,27.20,NW,315,2.5,3.6,68,0.00,,---,0.00,VWS V14.01,2013-03-11 02:00:00,
2013-03-10 21:15:00,15.3,6.3,27.23,NW,315,1.6,2.7,67,0.00,,---,0.00,VWS V14.01,2013-03-11 02:15:00,
2013-03-10 21:30:00,14.9,6.9,27.17,NNW,338,2.9,2.9,70,0.00,,---,0.00,VWS V14.01,2013-03-11 02:30:00,
2013-03-10 21:45:00,14.5,6.6,27.20,NW,315,0.0,3.6,70,0.00,,---,0.00,VWS V14.01,2013-03-11 02:45:00,
2013-03-10 22:00:00,14.9,8.1,27.20,NNW,338,2.2,2.7,74,0.00,,---,0.00,VWS V14.01,2013-03-11 03:00:00,
2013-03-10 22:15:00,14.4,7.6,27.20,NW,315,2.2,3.4,74,0.00,,---,0.00,VWS V14.01,2013-03-11 03:15:00,
2013-03-10 22:30:00,14.7,8.8,27.20,North,0,2.2,4.0,77,0.00,,---,0.00,VWS V14.01,2013-03-11 03:30:00,
2013-03-10 22:45:00,14.4,7.6,27.20,North,0,2.0,2.5,74,0.00,,---,0.00,VWS V14.01,2013-03-11 03:45:00,
2013-03-10 23:00:00,14.9,8.7,27.20,NNW,338,2.5,2.5,76,0.00,,---,0.00,VWS V14.01,2013-03-11 04:00:00,
2013-03-10 23:15:00,14.9,8.7,27.17,NNW,338,0.0,2.9,76,0.00,,---,0.00,VWS V14.01,2013-03-11 04:15:00,
2013-03-10 23:30:00,14.9,9.0,27.17,North,0,2.5,2.5,77,0.00,,---,0.00,VWS V14.01,2013-03-11 04:30:00,
2013-03-10 23:45:00,15.8,10.7,27.20,NW,315,1.6,4.0,80,0.00,,---,0.00,VWS V14.01,2013-03-11 04:45:00,